HORIZON KINETICS ASSET MANAGEMENT LLC, 10% owner of TPL - Past Performance as of 06/24/19. Total 34 Records. Link to Thomson Financial
Buy(P) /
Sell(S)
P/S date Filed Date Company Symbol Insider Relationship Share Amt. Unit Price Total Proceeds Shares Owned Return(1m) Details
P 2019-06-21 2019-06-24 11:50:01.0 TEXAS PACIFIC LAND TRUST TPL HORIZON KINETICS ASSET MANAGEMENT LLC 10% owner 50 $791.07 $39,553.50 298,309 view
P 2019-06-20 2019-06-21 11:08:33.0 TEXAS PACIFIC LAND TRUST TPL HORIZON KINETICS ASSET MANAGEMENT LLC 10% owner 50 $796.72 $39,836.00 298,259 view
P 2019-06-19 2019-06-20 11:15:25.0 TEXAS PACIFIC LAND TRUST TPL HORIZON KINETICS ASSET MANAGEMENT LLC 10% owner 50 $755.88 $37,794.00 298,209 view
P 2019-06-18 2019-06-19 11:19:03.0 TEXAS PACIFIC LAND TRUST TPL HORIZON KINETICS ASSET MANAGEMENT LLC 10% owner 50 $735.09 $36,754.50 298,159 view
P 2019-06-17 2019-06-18 12:10:32.0 TEXAS PACIFIC LAND TRUST TPL HORIZON KINETICS ASSET MANAGEMENT LLC 10% owner 50 $718.96 $35,948.00 298,109 view
P 2019-06-14 2019-06-17 12:27:14.0 TEXAS PACIFIC LAND TRUST TPL HORIZON KINETICS ASSET MANAGEMENT LLC 10% owner 50 $739.99 $36,999.50 298,059 view
P 2019-06-13 2019-06-14 13:44:15.0 TEXAS PACIFIC LAND TRUST TPL HORIZON KINETICS ASSET MANAGEMENT LLC 10% owner 50 $726.13 $36,306.50 298,009 view
P 2019-06-12 2019-06-13 12:30:20.0 TEXAS PACIFIC LAND TRUST TPL HORIZON KINETICS ASSET MANAGEMENT LLC 10% owner 50 $744.22 $37,211.00 297,959 view
P 2019-06-11 2019-06-12 11:14:10.0 TEXAS PACIFIC LAND TRUST TPL HORIZON KINETICS ASSET MANAGEMENT LLC 10% owner 50 $771.11 $38,555.50 297,909 view
P 2019-06-10 2019-06-11 11:02:54.0 TEXAS PACIFIC LAND TRUST TPL HORIZON KINETICS ASSET MANAGEMENT LLC 10% owner 50 $764.77 $38,238.50 297,859 view
P 2019-06-07 2019-06-10 11:15:34.0 TEXAS PACIFIC LAND TRUST TPL HORIZON KINETICS ASSET MANAGEMENT LLC 10% owner 50 $749.91 $37,495.50 297,809 view
P 2019-06-06 2019-06-07 11:14:59.0 TEXAS PACIFIC LAND TRUST TPL HORIZON KINETICS ASSET MANAGEMENT LLC 10% owner 175 $740.80 $129,640.00 297,759 view
P 2019-06-05 2019-06-06 11:17:38.0 TEXAS PACIFIC LAND TRUST TPL HORIZON KINETICS ASSET MANAGEMENT LLC 10% owner 50 $730.07 $36,503.50 297,584 view
P 2019-06-04 2019-06-05 11:45:35.0 TEXAS PACIFIC LAND TRUST TPL HORIZON KINETICS ASSET MANAGEMENT LLC 10% owner 50 $732.78 $36,639.00 297,534 view
P 2019-06-03 2019-06-04 11:04:03.0 TEXAS PACIFIC LAND TRUST TPL HORIZON KINETICS ASSET MANAGEMENT LLC 10% owner 50 $738.78 $36,939.00 297,484 view
P 2019-05-31 2019-06-03 11:32:02.0 TEXAS PACIFIC LAND TRUST TPL HORIZON KINETICS ASSET MANAGEMENT LLC 10% owner 50 $752.07 $37,603.50 297,434 view
P 2019-05-30 2019-05-31 10:47:25.0 TEXAS PACIFIC LAND TRUST TPL HORIZON KINETICS ASSET MANAGEMENT LLC 10% owner 50 $799.00 $39,950.00 297,384 view
P 2019-05-29 2019-05-30 11:21:02.0 TEXAS PACIFIC LAND TRUST TPL HORIZON KINETICS ASSET MANAGEMENT LLC 10% owner 50 $813.21 $40,660.50 297,334 view
P 2019-05-28 2019-05-29 11:12:40.0 TEXAS PACIFIC LAND TRUST TPL HORIZON KINETICS ASSET MANAGEMENT LLC 10% owner 50 $790.32 $39,516.00 297,284 view
P 2019-05-24 2019-05-28 12:38:35.0 TEXAS PACIFIC LAND TRUST TPL HORIZON KINETICS ASSET MANAGEMENT LLC 10% owner 50 $790.09 $39,504.50 297,234 view
P 2019-05-23 2019-05-24 11:47:35.0 TEXAS PACIFIC LAND TRUST TPL HORIZON KINETICS ASSET MANAGEMENT LLC 10% owner 36 $792.09 $28,515.20 297,184 view
P 2019-05-22 2019-05-23 11:53:52.0 TEXAS PACIFIC LAND TRUST TPL HORIZON KINETICS ASSET MANAGEMENT LLC 10% owner 36 $831.23 $29,924.30 297,148 view
P 2019-05-21 2019-05-22 11:05:17.0 TEXAS PACIFIC LAND TRUST TPL HORIZON KINETICS ASSET MANAGEMENT LLC 10% owner 36 $849.48 $30,581.30 297,112 view
P 2019-05-20 2019-05-21 10:42:01.0 TEXAS PACIFIC LAND TRUST TPL HORIZON KINETICS ASSET MANAGEMENT LLC 10% owner 36 $860.09 $30,963.20 297,076 view
P 2019-05-17 2019-05-20 10:15:03.0 TEXAS PACIFIC LAND TRUST TPL HORIZON KINETICS ASSET MANAGEMENT LLC 10% owner 36 $845.42 $30,435.10 297,040 view
P 2019-05-16 2019-05-17 10:05:01.0 TEXAS PACIFIC LAND TRUST TPL HORIZON KINETICS ASSET MANAGEMENT LLC 10% owner 36 $842.57 $30,332.50 297,004 view
P 2019-05-15 2019-05-16 11:35:31.0 TEXAS PACIFIC LAND TRUST TPL HORIZON KINETICS ASSET MANAGEMENT LLC 10% owner 36 $837.84 $30,162.20 296,968 view
P 2019-05-14 2019-05-15 11:35:46.0 TEXAS PACIFIC LAND TRUST TPL HORIZON KINETICS ASSET MANAGEMENT LLC 10% owner 36 $805.73 $29,006.30 296,932 view
P 2019-05-13 2019-05-14 10:55:25.0 TEXAS PACIFIC LAND TRUST TPL HORIZON KINETICS ASSET MANAGEMENT LLC 10% owner 36 $787.20 $28,339.20 296,896 view
P 2019-05-10 2019-05-13 11:34:04.0 TEXAS PACIFIC LAND TRUST TPL HORIZON KINETICS ASSET MANAGEMENT LLC 10% owner 36 $780.78 $28,108.10 296,860 view
P 2019-05-09 2019-05-10 11:14:32.0 TEXAS PACIFIC LAND TRUST TPL HORIZON KINETICS ASSET MANAGEMENT LLC 10% owner 36 $779.99 $28,079.60 296,824 view
P 2019-05-08 2019-05-09 11:05:25.0 TEXAS PACIFIC LAND TRUST TPL HORIZON KINETICS ASSET MANAGEMENT LLC 10% owner 36 $799.98 $28,799.30 296,788 view
P 2019-05-07 2019-05-08 11:31:45.0 TEXAS PACIFIC LAND TRUST TPL HORIZON KINETICS ASSET MANAGEMENT LLC 10% owner 36 $781.21 $28,123.60 296,752 view
P 2019-05-06 2019-05-07 12:36:17.0 TEXAS PACIFIC LAND TRUST TPL HORIZON KINETICS ASSET MANAGEMENT LLC 10% owner 36 $807.23 $29,060.30 296,716 view
* Filed by insider as open market transaction, but marked as private transaction by insidercow's proprietary method